owner,sensor,date,latitude,longitude,sea_surface_height_above_sea_level,qcFlag 
COMPS,ioos:station:USF.COMPS:SHP:1,2017-07-01T00:00:00Z,30.0600,-84.2910,-9.62,1111122 
COMPS,ioos:station:USF.COMPS:SHP:1,2017-07-01T00:06:00Z,30.0600,-84.2910,-9.618,1111122 
COMPS,ioos:station:USF.COMPS:SHP:1,2017-07-01T00:12:00Z,30.0600,-84.2910,-9.62,1111122 
COMPS,ioos:station:USF.COMPS:SHP:1,2017-07-01T00:18:00Z,30.0600,-84.2910,-9.619,1111122 
COMPS,ioos:station:USF.COMPS:SHP:1,2017-07-01T00:24:00Z,30.0600,-84.2910,-9.614,1111122 
COMPS,ioos:station:USF.COMPS:SHP:1,2017-07-01T00:30:00Z,30.0600,-84.2910,-9.616,1111122 
COMPS,ioos:station:USF.COMPS:SHP:1,2017-07-01T00:36:00Z,30.0600,-84.2910,-9.619,1111122 
COMPS,ioos:station:USF.COMPS:SHP:1,2017-07-01T00:42:00Z,30.0600,-84.2910,-9.616,1111122 
COMPS,ioos:station:USF.COMPS:SHP:1,2017-07-01T00:48:00Z,30.0600,-84.2910,-9.618,1111122 
COMPS,ioos:station:USF.COMPS:SHP:1,2017-07-01T00:54:00Z,30.0600,-84.2910,-9.621,1111122 
COMPS,ioos:station:USF.COMPS:SHP:1,2017-07-01T01:00:00Z,30.0600,-84.2910,-9.619,1111122 
COMPS,ioos:station:USF.COMPS:SHP:1,2017-07-01T01:06:00Z,30.0600,-84.2910,-9.621,1111122 
COMPS,ioos:station:USF.COMPS:SHP:1,2017-07-01T01:12:00Z,30.0600,-84.2910,-9.626,1111122 
COMPS,ioos:station:USF.COMPS:SHP:1,2017-07-01T01:18:00Z,30.0600,-84.2910,-9.638,1111122 
COMPS,ioos:station:USF.COMPS:SHP:1,2017-07-01T01:24:00Z,30.0600,-84.2910,-9.635,1111122 
COMPS,ioos:station:USF.COMPS:SHP:1,2017-07-01T01:30:00Z,30.0600,-84.2910,-9.641,1111122 
COMPS,ioos:station:USF.COMPS:SHP:1,2017-07-01T01:36:00Z,30.0600,-84.2910,-9.66,1111122 
COMPS,ioos:station:USF.COMPS:SHP:1,2017-07-01T01:42:00Z,30.0600,-84.2910,-9.656,1111122 
COMPS,ioos:station:USF.COMPS:SHP:1,2017-07-01T01:48:00Z,30.0600,-84.2910,-9.658,1111122 
COMPS,ioos:station:USF.COMPS:SHP:1,2017-07-01T01:54:00Z,30.0600,-84.2910,-9.673,1111122 
COMPS,ioos:station:USF.COMPS:SHP:1,2017-07-01T02:00:00Z,30.0600,-84.2910,-9.687,1111122 
COMPS,ioos:station:USF.COMPS:SHP:1,2017-07-01T02:06:00Z,30.0600,-84.2910,-9.705,1111122 
COMPS,ioos:station:USF.COMPS:SHP:1,2017-07-01T02:12:00Z,30.0600,-84.2910,-9.71,1111122 
COMPS,ioos:station:USF.COMPS:SHP:1,2017-07-01T02:18:00Z,30.0600,-84.2910,-9.715,1111122 
COMPS,ioos:station:USF.COMPS:SHP:1,2017-07-01T02:24:00Z,30.0600,-84.2910,-9.732,1111122 
COMPS,ioos:station:USF.COMPS:SHP:1,2017-07-01T02:30:00Z,30.0600,-84.2910,-9.745,1111122 
COMPS,ioos:station:USF.COMPS:SHP:1,2017-07-01T02:36:00Z,30.0600,-84.2910,-9.762,1111122 
COMPS,ioos:station:USF.COMPS:SHP:1,2017-07-01T02:42:00Z,30.0600,-84.2910,-9.786,1111122 
COMPS,ioos:station:USF.COMPS:SHP:1,2017-07-01T02:48:00Z,30.0600,-84.2910,-9.799,1111122 
COMPS,ioos:station:USF.COMPS:SHP:1,2017-07-01T02:54:00Z,30.0600,-84.2910,-9.809,1111122 
COMPS,ioos:station:USF.COMPS:SHP:1,2017-07-01T03:00:00Z,30.0600,-84.2910,-9.819,1111122 
COMPS,ioos:station:USF.COMPS:SHP:1,2017-07-01T03:06:00Z,30.0600,-84.2910,-9.84,1111122 
COMPS,ioos:station:USF.COMPS:SHP:1,2017-07-01T03:12:00Z,30.0600,-84.2910,-9.864,1111122 
COMPS,ioos:station:USF.COMPS:SHP:1,2017-07-01T03:18:00Z,30.0600,-84.2910,-9.884,1111122 
COMPS,ioos:station:USF.COMPS:SHP:1,2017-07-01T03:24:00Z,30.0600,-84.2910,-9.901,1111122 
COMPS,ioos:station:USF.COMPS:SHP:1,2017-07-01T03:30:00Z,30.0600,-84.2910,-9.916,1111122 
COMPS,ioos:station:USF.COMPS:SHP:1,2017-07-01T03:36:00Z,30.0600,-84.2910,-9.927,1111122 
COMPS,ioos:station:USF.COMPS:SHP:1,2017-07-01T03:42:00Z,30.0600,-84.2910,-9.941,1111122 
COMPS,ioos:station:USF.COMPS:SHP:1,2017-07-01T03:48:00Z,30.0600,-84.2910,-9.964,1111122 
COMPS,ioos:station:USF.COMPS:SHP:1,2017-07-01T03:54:00Z,30.0600,-84.2910,-9.986,1111122 
COMPS,ioos:station:USF.COMPS:SHP:1,2017-07-01T09:06:00Z,30.0600,-84.2910,-9.976,1111122 
COMPS,ioos:station:USF.COMPS:SHP:1,2017-07-01T09:12:00Z,30.0600,-84.2910,-9.955,1111122 
COMPS,ioos:station:USF.COMPS:SHP:1,2017-07-01T09:18:00Z,30.0600,-84.2910,-9.937,1111122 
COMPS,ioos:station:USF.COMPS:SHP:1,2017-07-01T09:24:00Z,30.0600,-84.2910,-9.915,1111122 
COMPS,ioos:station:USF.COMPS:SHP:1,2017-07-01T09:30:00Z,30.0600,-84.2910,-9.893,1111122 
COMPS,ioos:station:USF.COMPS:SHP:1,2017-07-01T09:36:00Z,30.0600,-84.2910,-9.877,1111122 
COMPS,ioos:station:USF.COMPS:SHP:1,2017-07-01T09:42:00Z,30.0600,-84.2910,-9.866,1111122 
COMPS,ioos:station:USF.COMPS:SHP:1,2017-07-01T09:48:00Z,30.0600,-84.2910,-9.846,1111122 
COMPS,ioos:station:USF.COMPS:SHP:1,2017-07-01T09:54:00Z,30.0600,-84.2910,-9.824,1111122 
COMPS,ioos:station:USF.COMPS:SHP:1,2017-07-01T10:00:00Z,30.0600,-84.2910,-9.804,1111122 
COMPS,ioos:station:USF.COMPS:SHP:1,2017-07-01T10:06:00Z,30.0600,-84.2910,-9.786,1111122 
COMPS,ioos:station:USF.COMPS:SHP:1,2017-07-01T10:12:00Z,30.0600,-84.2910,-9.77,1111122 
COMPS,ioos:station:USF.COMPS:SHP:1,2017-07-01T10:18:00Z,30.0600,-84.2910,-9.75,1111122 
COMPS,ioos:station:USF.COMPS:SHP:1,2017-07-01T10:24:00Z,30.0600,-84.2910,-9.735,1111122 
COMPS,ioos:station:USF.COMPS:SHP:1,2017-07-01T10:30:00Z,30.0600,-84.2910,-9.72,1111122 
COMPS,ioos:station:USF.COMPS:SHP:1,2017-07-01T10:36:00Z,30.0600,-84.2910,-9.695,1111122 
COMPS,ioos:station:USF.COMPS:SHP:1,2017-07-01T10:42:00Z,30.0600,-84.2910,-9.68,1111122 
COMPS,ioos:station:USF.COMPS:SHP:1,2017-07-01T10:48:00Z,30.0600,-84.2910,-9.668,1111122 
COMPS,ioos:station:USF.COMPS:SHP:1,2017-07-01T10:54:00Z,30.0600,-84.2910,-9.652,1111122 
COMPS,ioos:station:USF.COMPS:SHP:1,2017-07-01T11:00:00Z,30.0600,-84.2910,-9.638,1111122 
COMPS,ioos:station:USF.COMPS:SHP:1,2017-07-01T11:06:00Z,30.0600,-84.2910,-9.631,1111122 
COMPS,ioos:station:USF.COMPS:SHP:1,2017-07-01T11:12:00Z,30.0600,-84.2910,-9.622,1111122 
COMPS,ioos:station:USF.COMPS:SHP:1,2017-07-01T11:18:00Z,30.0600,-84.2910,-9.609,1111122 
COMPS,ioos:station:USF.COMPS:SHP:1,2017-07-01T11:24:00Z,30.0600,-84.2910,-9.593,1111122 
COMPS,ioos:station:USF.COMPS:SHP:1,2017-07-01T11:30:00Z,30.0600,-84.2910,-9.581,1111122 
COMPS,ioos:station:USF.COMPS:SHP:1,2017-07-01T11:36:00Z,30.0600,-84.2910,-9.566,1111122 
COMPS,ioos:station:USF.COMPS:SHP:1,2017-07-01T11:42:00Z,30.0600,-84.2910,-9.562,1111122 
COMPS,ioos:station:USF.COMPS:SHP:1,2017-07-01T11:48:00Z,30.0600,-84.2910,-9.558,1111122 
COMPS,ioos:station:USF.COMPS:SHP:1,2017-07-01T11:54:00Z,30.0600,-84.2910,-9.552,1111122 
COMPS,ioos:station:USF.COMPS:SHP:1,2017-07-01T12:00:00Z,30.0600,-84.2910,-9.544,1111122 
COMPS,ioos:station:USF.COMPS:SHP:1,2017-07-01T12:06:00Z,30.0600,-84.2910,-9.531,1111122 
COMPS,ioos:station:USF.COMPS:SHP:1,2017-07-01T12:12:00Z,30.0600,-84.2910,-9.522,1111122 
COMPS,ioos:station:USF.COMPS:SHP:1,2017-07-01T12:18:00Z,30.0600,-84.2910,-9.53,1111122 
COMPS,ioos:station:USF.COMPS:SHP:1,2017-07-01T12:24:00Z,30.0600,-84.2910,-9.524,1111122 
COMPS,ioos:station:USF.COMPS:SHP:1,2017-07-01T12:30:00Z,30.0600,-84.2910,-9.507,1111122 
COMPS,ioos:station:USF.COMPS:SHP:1,2017-07-01T12:36:00Z,30.0600,-84.2910,-9.505,1111122 
COMPS,ioos:station:USF.COMPS:SHP:1,2017-07-01T12:42:00Z,30.0600,-84.2910,-9.508,1111122 
COMPS,ioos:station:USF.COMPS:SHP:1,2017-07-01T12:48:00Z,30.0600,-84.2910,-9.505,1111122 
COMPS,ioos:station:USF.COMPS:SHP:1,2017-07-01T12:54:00Z,30.0600,-84.2910,-9.507,1111122 
COMPS,ioos:station:USF.COMPS:SHP:1,2017-07-01T13:00:00Z,30.0600,-84.2910,-9.508,1111122 
COMPS,ioos:station:USF.COMPS:SHP:1,2017-07-01T13:06:00Z,30.0600,-84.2910,-9.506,1111122 
COMPS,ioos:station:USF.COMPS:SHP:1,2017-07-01T13:12:00Z,30.0600,-84.2910,-9.504,1111122 
COMPS,ioos:station:USF.COMPS:SHP:1,2017-07-01T13:18:00Z,30.0600,-84.2910,-9.504,1111122 
COMPS,ioos:station:USF.COMPS:SHP:1,2017-07-01T13:24:00Z,30.0600,-84.2910,-9.509,1111122 
COMPS,ioos:station:USF.COMPS:SHP:1,2017-07-01T13:30:00Z,30.0600,-84.2910,-9.512,1111122 
COMPS,ioos:station:USF.COMPS:SHP:1,2017-07-01T13:36:00Z,30.0600,-84.2910,-9.521,1111122 
COMPS,ioos:station:USF.COMPS:SHP:1,2017-07-01T13:42:00Z,30.0600,-84.2910,-9.525,1111122 
COMPS,ioos:station:USF.COMPS:SHP:1,2017-07-01T13:48:00Z,30.0600,-84.2910,-9.522,1111122 
COMPS,ioos:station:USF.COMPS:SHP:1,2017-07-01T13:54:00Z,30.0600,-84.2910,-9.531,1111122 
COMPS,ioos:station:USF.COMPS:SHP:1,2017-07-01T14:00:00Z,30.0600,-84.2910,-9.539,1111122 
COMPS,ioos:station:USF.COMPS:SHP:1,2017-07-01T14:06:00Z,30.0600,-84.2910,-9.549,1111122 
COMPS,ioos:station:USF.COMPS:SHP:1,2017-07-01T14:12:00Z,30.0600,-84.2910,-9.558,1111122 
COMPS,ioos:station:USF.COMPS:SHP:1,2017-07-01T14:18:00Z,30.0600,-84.2910,-9.578,1111122 
COMPS,ioos:station:USF.COMPS:SHP:1,2017-07-01T14:24:00Z,30.0600,-84.2910,-9.591,1111122 
COMPS,ioos:station:USF.COMPS:SHP:1,2017-07-01T14:30:00Z,30.0600,-84.2910,-9.605,1111122 
COMPS,ioos:station:USF.COMPS:SHP:1,2017-07-01T14:36:00Z,30.0600,-84.2910,-9.623,1111122 
COMPS,ioos:station:USF.COMPS:SHP:1,2017-07-01T14:42:00Z,30.0600,-84.2910,-9.634,1111122 
COMPS,ioos:station:USF.COMPS:SHP:1,2017-07-01T14:48:00Z,30.0600,-84.2910,-9.656,1111122 
COMPS,ioos:station:USF.COMPS:SHP:1,2017-07-01T14:54:00Z,30.0600,-84.2910,-9.674,1111122 
COMPS,ioos:station:USF.COMPS:SHP:1,2017-07-01T15:00:00Z,30.0600,-84.2910,-9.683,1111122 
COMPS,ioos:station:USF.COMPS:SHP:1,2017-07-01T15:06:00Z,30.0600,-84.2910,-9.699,1111122 
COMPS,ioos:station:USF.COMPS:SHP:1,2017-07-01T15:12:00Z,30.0600,-84.2910,-9.718,1111122 
COMPS,ioos:station:USF.COMPS:SHP:1,2017-07-01T15:18:00Z,30.0600,-84.2910,-9.731,1111122 
COMPS,ioos:station:USF.COMPS:SHP:1,2017-07-01T15:24:00Z,30.0600,-84.2910,-9.747,1111122 
COMPS,ioos:station:USF.COMPS:SHP:1,2017-07-01T15:30:00Z,30.0600,-84.2910,-9.767,1111122 
COMPS,ioos:station:USF.COMPS:SHP:1,2017-07-01T15:36:00Z,30.0600,-84.2910,-9.794,1111122 
COMPS,ioos:station:USF.COMPS:SHP:1,2017-07-01T15:42:00Z,30.0600,-84.2910,-9.81,1111122 
COMPS,ioos:station:USF.COMPS:SHP:1,2017-07-01T15:48:00Z,30.0600,-84.2910,-9.826,1111122 
COMPS,ioos:station:USF.COMPS:SHP:1,2017-07-01T15:54:00Z,30.0600,-84.2910,-9.841,1111122 
COMPS,ioos:station:USF.COMPS:SHP:1,2017-07-01T16:00:00Z,30.0600,-84.2910,-9.852,1111122 
COMPS,ioos:station:USF.COMPS:SHP:1,2017-07-01T16:06:00Z,30.0600,-84.2910,-9.869,1111122 
COMPS,ioos:station:USF.COMPS:SHP:1,2017-07-01T16:12:00Z,30.0600,-84.2910,-9.894,1111122 
COMPS,ioos:station:USF.COMPS:SHP:1,2017-07-01T16:18:00Z,30.0600,-84.2910,-9.913,1111122 
COMPS,ioos:station:USF.COMPS:SHP:1,2017-07-01T16:24:00Z,30.0600,-84.2910,-9.936,1111122 
COMPS,ioos:station:USF.COMPS:SHP:1,2017-07-01T16:30:00Z,30.0600,-84.2910,-9.958,1111122 
COMPS,ioos:station:USF.COMPS:SHP:1,2017-07-01T16:36:00Z,30.0600,-84.2910,-9.969,1111122 
COMPS,ioos:station:USF.COMPS:SHP:1,2017-07-01T16:42:00Z,30.0600,-84.2910,-9.975,1111122 
COMPS,ioos:station:USF.COMPS:SHP:1,2017-07-01T16:48:00Z,30.0600,-84.2910,-9.979,1111122 
COMPS,ioos:station:USF.COMPS:SHP:1,2017-07-01T16:54:00Z,30.0600,-84.2910,-9.997,1111122 
COMPS,ioos:station:USF.COMPS:SHP:1,2017-07-01T22:00:00Z,30.0600,-84.2910,-9.991,1111122 
COMPS,ioos:station:USF.COMPS:SHP:1,2017-07-01T22:06:00Z,30.0600,-84.2910,-9.977,1111122 
COMPS,ioos:station:USF.COMPS:SHP:1,2017-07-01T22:12:00Z,30.0600,-84.2910,-9.955,1111122 
COMPS,ioos:station:USF.COMPS:SHP:1,2017-07-01T22:18:00Z,30.0600,-84.2910,-9.942,1111122 
COMPS,ioos:station:USF.COMPS:SHP:1,2017-07-01T22:24:00Z,30.0600,-84.2910,-9.936,1111122 
COMPS,ioos:station:USF.COMPS:SHP:1,2017-07-01T22:30:00Z,30.0600,-84.2910,-9.923,1111122 
COMPS,ioos:station:USF.COMPS:SHP:1,2017-07-01T22:36:00Z,30.0600,-84.2910,-9.906,1111122 
COMPS,ioos:station:USF.COMPS:SHP:1,2017-07-01T22:42:00Z,30.0600,-84.2910,-9.887,1111122 
COMPS,ioos:station:USF.COMPS:SHP:1,2017-07-01T22:48:00Z,30.0600,-84.2910,-9.875,1111122 
COMPS,ioos:station:USF.COMPS:SHP:1,2017-07-01T22:54:00Z,30.0600,-84.2910,-9.865,1111122 
COMPS,ioos:station:USF.COMPS:SHP:1,2017-07-01T23:00:00Z,30.0600,-84.2910,-9.848,1111122 
COMPS,ioos:station:USF.COMPS:SHP:1,2017-07-01T23:06:00Z,30.0600,-84.2910,-9.83,1111122 
COMPS,ioos:station:USF.COMPS:SHP:1,2017-07-01T23:12:00Z,30.0600,-84.2910,-9.812,1111122 
COMPS,ioos:station:USF.COMPS:SHP:1,2017-07-01T23:18:00Z,30.0600,-84.2910,-9.794,1111122 
COMPS,ioos:station:USF.COMPS:SHP:1,2017-07-01T23:24:00Z,30.0600,-84.2910,-9.782,1111122 
COMPS,ioos:station:USF.COMPS:SHP:1,2017-07-01T23:30:00Z,30.0600,-84.2910,-9.77,1111122 
COMPS,ioos:station:USF.COMPS:SHP:1,2017-07-01T23:36:00Z,30.0600,-84.2910,-9.763,1111122 
COMPS,ioos:station:USF.COMPS:SHP:1,2017-07-01T23:42:00Z,30.0600,-84.2910,-9.754,1111122 
COMPS,ioos:station:USF.COMPS:SHP:1,2017-07-01T23:48:00Z,30.0600,-84.2910,-9.738,1111122 
COMPS,ioos:station:USF.COMPS:SHP:1,2017-07-01T23:54:00Z,30.0600,-84.2910,-9.724,1111122 
COMPS,ioos:station:USF.COMPS:SHP:1,2017-07-02T00:00:00Z,30.0600,-84.2910,-9.712,1111122 
COMPS,ioos:station:USF.COMPS:SHP:1,2017-07-02T00:06:00Z,30.0600,-84.2910,-9.709,1111122 
COMPS,ioos:station:USF.COMPS:SHP:1,2017-07-02T00:12:00Z,30.0600,-84.2910,-9.709,1111122 
COMPS,ioos:station:USF.COMPS:SHP:1,2017-07-02T00:18:00Z,30.0600,-84.2910,-9.707,1111122 
COMPS,ioos:station:USF.COMPS:SHP:1,2017-07-02T00:24:00Z,30.0600,-84.2910,-9.711,1111122 
COMPS,ioos:station:USF.COMPS:SHP:1,2017-07-02T00:30:00Z,30.0600,-84.2910,-9.705,1111122 
COMPS,ioos:station:USF.COMPS:SHP:1,2017-07-02T00:36:00Z,30.0600,-84.2910,-9.682,1111122 
COMPS,ioos:station:USF.COMPS:SHP:1,2017-07-02T00:42:00Z,30.0600,-84.2910,-9.676,1111122 
COMPS,ioos:station:USF.COMPS:SHP:1,2017-07-02T00:48:00Z,30.0600,-84.2910,-9.674,1111122 
COMPS,ioos:station:USF.COMPS:SHP:1,2017-07-02T00:54:00Z,30.0600,-84.2910,-9.665,1111122 
COMPS,ioos:station:USF.COMPS:SHP:1,2017-07-02T01:00:00Z,30.0600,-84.2910,-9.662,1111122 
COMPS,ioos:station:USF.COMPS:SHP:1,2017-07-02T01:06:00Z,30.0600,-84.2910,-9.67,1111122 
COMPS,ioos:station:USF.COMPS:SHP:1,2017-07-02T01:12:00Z,30.0600,-84.2910,-9.675,1111122 
COMPS,ioos:station:USF.COMPS:SHP:1,2017-07-02T01:18:00Z,30.0600,-84.2910,-9.678,1111122 
COMPS,ioos:station:USF.COMPS:SHP:1,2017-07-02T01:24:00Z,30.0600,-84.2910,-9.676,1111122 
COMPS,ioos:station:USF.COMPS:SHP:1,2017-07-02T01:30:00Z,30.0600,-84.2910,-9.664,1111122 
COMPS,ioos:station:USF.COMPS:SHP:1,2017-07-02T01:36:00Z,30.0600,-84.2910,-9.671,1111122 
COMPS,ioos:station:USF.COMPS:SHP:1,2017-07-02T01:42:00Z,30.0600,-84.2910,-9.68,1111122 
COMPS,ioos:station:USF.COMPS:SHP:1,2017-07-02T01:48:00Z,30.0600,-84.2910,-9.676,1111122 
COMPS,ioos:station:USF.COMPS:SHP:1,2017-07-02T01:54:00Z,30.0600,-84.2910,-9.673,1111122 
COMPS,ioos:station:USF.COMPS:SHP:1,2017-07-02T02:00:00Z,30.0600,-84.2910,-9.674,1111122 
COMPS,ioos:station:USF.COMPS:SHP:1,2017-07-02T02:06:00Z,30.0600,-84.2910,-9.676,1111122 
COMPS,ioos:station:USF.COMPS:SHP:1,2017-07-02T02:12:00Z,30.0600,-84.2910,-9.683,1111122 
COMPS,ioos:station:USF.COMPS:SHP:1,2017-07-02T02:18:00Z,30.0600,-84.2910,-9.679,1111122 
COMPS,ioos:station:USF.COMPS:SHP:1,2017-07-02T02:24:00Z,30.0600,-84.2910,-9.68,1111122 
COMPS,ioos:station:USF.COMPS:SHP:1,2017-07-02T02:30:00Z,30.0600,-84.2910,-9.689,1111122 
COMPS,ioos:station:USF.COMPS:SHP:1,2017-07-02T02:36:00Z,30.0600,-84.2910,-9.702,1111122 
COMPS,ioos:station:USF.COMPS:SHP:1,2017-07-02T02:42:00Z,30.0600,-84.2910,-9.714,1111122 
COMPS,ioos:station:USF.COMPS:SHP:1,2017-07-02T02:48:00Z,30.0600,-84.2910,-9.708,1111122 
COMPS,ioos:station:USF.COMPS:SHP:1,2017-07-02T02:54:00Z,30.0600,-84.2910,-9.706,1111122 
COMPS,ioos:station:USF.COMPS:SHP:1,2017-07-02T03:00:00Z,30.0600,-84.2910,-9.725,1111122 
COMPS,ioos:station:USF.COMPS:SHP:1,2017-07-02T03:06:00Z,30.0600,-84.2910,-9.738,1111122 
COMPS,ioos:station:USF.COMPS:SHP:1,2017-07-02T03:12:00Z,30.0600,-84.2910,-9.75,1111122 
COMPS,ioos:station:USF.COMPS:SHP:1,2017-07-02T03:18:00Z,30.0600,-84.2910,-9.765,1111122 
COMPS,ioos:station:USF.COMPS:SHP:1,2017-07-02T03:24:00Z,30.0600,-84.2910,-9.773,1111122 
COMPS,ioos:station:USF.COMPS:SHP:1,2017-07-02T03:30:00Z,30.0600,-84.2910,-9.783,1111122 
COMPS,ioos:station:USF.COMPS:SHP:1,2017-07-02T03:36:00Z,30.0600,-84.2910,-9.799,1111122 
COMPS,ioos:station:USF.COMPS:SHP:1,2017-07-02T03:42:00Z,30.0600,-84.2910,-9.809,1111122 
COMPS,ioos:station:USF.COMPS:SHP:1,2017-07-02T03:48:00Z,30.0600,-84.2910,-9.819,1111122 
COMPS,ioos:station:USF.COMPS:SHP:1,2017-07-02T03:54:00Z,30.0600,-84.2910,-9.833,1111122 
COMPS,ioos:station:USF.COMPS:SHP:1,2017-07-02T04:00:00Z,30.0600,-84.2910,-9.847,1111122 
COMPS,ioos:station:USF.COMPS:SHP:1,2017-07-02T04:06:00Z,30.0600,-84.2910,-9.861,1111122 
COMPS,ioos:station:USF.COMPS:SHP:1,2017-07-02T04:12:00Z,30.0600,-84.2910,-9.879,1111122 
COMPS,ioos:station:USF.COMPS:SHP:1,2017-07-02T04:18:00Z,30.0600,-84.2910,-9.892,1111122 
COMPS,ioos:station:USF.COMPS:SHP:1,2017-07-02T04:24:00Z,30.0600,-84.2910,-9.909,1111122 
COMPS,ioos:station:USF.COMPS:SHP:1,2017-07-02T04:30:00Z,30.0600,-84.2910,-9.928,1111122 
COMPS,ioos:station:USF.COMPS:SHP:1,2017-07-02T04:36:00Z,30.0600,-84.2910,-9.94,1111122 
COMPS,ioos:station:USF.COMPS:SHP:1,2017-07-02T04:42:00Z,30.0600,-84.2910,-9.946,1111122 
COMPS,ioos:station:USF.COMPS:SHP:1,2017-07-02T04:48:00Z,30.0600,-84.2910,-9.952,1111122 
COMPS,ioos:station:USF.COMPS:SHP:1,2017-07-02T04:54:00Z,30.0600,-84.2910,-9.97,1111122 
COMPS,ioos:station:USF.COMPS:SHP:1,2017-07-02T05:00:00Z,30.0600,-84.2910,-9.985,1111122 
COMPS,ioos:station:USF.COMPS:SHP:1,2017-07-02T05:06:00Z,30.0600,-84.2910,-9.997,1111122 
COMPS,ioos:station:USF.COMPS:SHP:1,2017-07-02T09:54:00Z,30.0600,-84.2910,-9.986,1111122 
COMPS,ioos:station:USF.COMPS:SHP:1,2017-07-02T10:00:00Z,30.0600,-84.2910,-9.965,1111122 
COMPS,ioos:station:USF.COMPS:SHP:1,2017-07-02T10:06:00Z,30.0600,-84.2910,-9.943,1111122 
COMPS,ioos:station:USF.COMPS:SHP:1,2017-07-02T10:12:00Z,30.0600,-84.2910,-9.928,1111122 
COMPS,ioos:station:USF.COMPS:SHP:1,2017-07-02T10:18:00Z,30.0600,-84.2910,-9.919,1111122 
COMPS,ioos:station:USF.COMPS:SHP:1,2017-07-02T10:24:00Z,30.0600,-84.2910,-9.899,1111122 
COMPS,ioos:station:USF.COMPS:SHP:1,2017-07-02T10:30:00Z,30.0600,-84.2910,-9.876,1111122 
COMPS,ioos:station:USF.COMPS:SHP:1,2017-07-02T10:36:00Z,30.0600,-84.2910,-9.861,1111122 
COMPS,ioos:station:USF.COMPS:SHP:1,2017-07-02T10:42:00Z,30.0600,-84.2910,-9.845,1111122 
COMPS,ioos:station:USF.COMPS:SHP:1,2017-07-02T10:48:00Z,30.0600,-84.2910,-9.827,1111122 
COMPS,ioos:station:USF.COMPS:SHP:1,2017-07-02T10:54:00Z,30.0600,-84.2910,-9.809,1111122 
COMPS,ioos:station:USF.COMPS:SHP:1,2017-07-02T11:00:00Z,30.0600,-84.2910,-9.791,1111122 
COMPS,ioos:station:USF.COMPS:SHP:1,2017-07-02T11:06:00Z,30.0600,-84.2910,-9.773,1111122 
COMPS,ioos:station:USF.COMPS:SHP:1,2017-07-02T11:12:00Z,30.0600,-84.2910,-9.758,1111122 
COMPS,ioos:station:USF.COMPS:SHP:1,2017-07-02T11:18:00Z,30.0600,-84.2910,-9.743,1111122 
COMPS,ioos:station:USF.COMPS:SHP:1,2017-07-02T11:24:00Z,30.0600,-84.2910,-9.731,1111122 
COMPS,ioos:station:USF.COMPS:SHP:1,2017-07-02T11:30:00Z,30.0600,-84.2910,-9.718,1111122 
COMPS,ioos:station:USF.COMPS:SHP:1,2017-07-02T11:36:00Z,30.0600,-84.2910,-9.701,1111122 
COMPS,ioos:station:USF.COMPS:SHP:1,2017-07-02T11:42:00Z,30.0600,-84.2910,-9.685,1111122 
COMPS,ioos:station:USF.COMPS:SHP:1,2017-07-02T11:48:00Z,30.0600,-84.2910,-9.671,1111122 
COMPS,ioos:station:USF.COMPS:SHP:1,2017-07-02T11:54:00Z,30.0600,-84.2910,-9.661,1111122 
COMPS,ioos:station:USF.COMPS:SHP:1,2017-07-02T12:00:00Z,30.0600,-84.2910,-9.65,1111122 
COMPS,ioos:station:USF.COMPS:SHP:1,2017-07-02T12:06:00Z,30.0600,-84.2910,-9.631,1111122 
COMPS,ioos:station:USF.COMPS:SHP:1,2017-07-02T12:12:00Z,30.0600,-84.2910,-9.628,1111122 
COMPS,ioos:station:USF.COMPS:SHP:1,2017-07-02T12:18:00Z,30.0600,-84.2910,-9.625,1111122 
COMPS,ioos:station:USF.COMPS:SHP:1,2017-07-02T12:24:00Z,30.0600,-84.2910,-9.611,1111122 
COMPS,ioos:station:USF.COMPS:SHP:1,2017-07-02T12:30:00Z,30.0600,-84.2910,-9.599,1111122 
COMPS,ioos:station:USF.COMPS:SHP:1,2017-07-02T12:36:00Z,30.0600,-84.2910,-9.591,1111122 
COMPS,ioos:station:USF.COMPS:SHP:1,2017-07-02T12:42:00Z,30.0600,-84.2910,-9.583,1111122 
COMPS,ioos:station:USF.COMPS:SHP:1,2017-07-02T12:48:00Z,30.0600,-84.2910,-9.579,1111122 
COMPS,ioos:station:USF.COMPS:SHP:1,2017-07-02T12:54:00Z,30.0600,-84.2910,-9.579,1111122 
COMPS,ioos:station:USF.COMPS:SHP:1,2017-07-02T13:00:00Z,30.0600,-84.2910,-9.568,1111122 
COMPS,ioos:station:USF.COMPS:SHP:1,2017-07-02T13:06:00Z,30.0600,-84.2910,-9.558,1111122 
COMPS,ioos:station:USF.COMPS:SHP:1,2017-07-02T13:12:00Z,30.0600,-84.2910,-9.558,1111122 
COMPS,ioos:station:USF.COMPS:SHP:1,2017-07-02T13:18:00Z,30.0600,-84.2910,-9.551,1111122 
COMPS,ioos:station:USF.COMPS:SHP:1,2017-07-02T13:24:00Z,30.0600,-84.2910,-9.546,1111122 
COMPS,ioos:station:USF.COMPS:SHP:1,2017-07-02T13:30:00Z,30.0600,-84.2910,-9.54,1111122 
COMPS,ioos:station:USF.COMPS:SHP:1,2017-07-02T13:36:00Z,30.0600,-84.2910,-9.54,1111122 
COMPS,ioos:station:USF.COMPS:SHP:1,2017-07-02T13:42:00Z,30.0600,-84.2910,-9.527,1111122 
COMPS,ioos:station:USF.COMPS:SHP:1,2017-07-02T13:48:00Z,30.0600,-84.2910,-9.523,1111122 
COMPS,ioos:station:USF.COMPS:SHP:1,2017-07-02T13:54:00Z,30.0600,-84.2910,-9.523,1111122 
COMPS,ioos:station:USF.COMPS:SHP:1,2017-07-02T14:00:00Z,30.0600,-84.2910,-9.521,1111122 
COMPS,ioos:station:USF.COMPS:SHP:1,2017-07-02T14:06:00Z,30.0600,-84.2910,-9.522,1111122 
COMPS,ioos:station:USF.COMPS:SHP:1,2017-07-02T14:12:00Z,30.0600,-84.2910,-9.533,1111122 
COMPS,ioos:station:USF.COMPS:SHP:1,2017-07-02T14:18:00Z,30.0600,-84.2910,-9.531,1111122 
COMPS,ioos:station:USF.COMPS:SHP:1,2017-07-02T14:24:00Z,30.0600,-84.2910,-9.529,1111122 
COMPS,ioos:station:USF.COMPS:SHP:1,2017-07-02T14:30:00Z,30.0600,-84.2910,-9.539,1111122 
COMPS,ioos:station:USF.COMPS:SHP:1,2017-07-02T14:36:00Z,30.0600,-84.2910,-9.545,1111122 
COMPS,ioos:station:USF.COMPS:SHP:1,2017-07-02T14:42:00Z,30.0600,-84.2910,-9.555,1111122 
COMPS,ioos:station:USF.COMPS:SHP:1,2017-07-02T14:48:00Z,30.0600,-84.2910,-9.56,1111122 
COMPS,ioos:station:USF.COMPS:SHP:1,2017-07-02T14:54:00Z,30.0600,-84.2910,-9.559,1111122 
COMPS,ioos:station:USF.COMPS:SHP:1,2017-07-02T15:00:00Z,30.0600,-84.2910,-9.567,1111122 
COMPS,ioos:station:USF.COMPS:SHP:1,2017-07-02T15:06:00Z,30.0600,-84.2910,-9.572,1111122 
COMPS,ioos:station:USF.COMPS:SHP:1,2017-07-02T15:12:00Z,30.0600,-84.2910,-9.582,1111122 
COMPS,ioos:station:USF.COMPS:SHP:1,2017-07-02T15:18:00Z,30.0600,-84.2910,-9.592,1111122 
COMPS,ioos:station:USF.COMPS:SHP:1,2017-07-02T15:24:00Z,30.0600,-84.2910,-9.598,1111122 
COMPS,ioos:station:USF.COMPS:SHP:1,2017-07-02T15:30:00Z,30.0600,-84.2910,-9.622,1111122 
COMPS,ioos:station:USF.COMPS:SHP:1,2017-07-02T15:36:00Z,30.0600,-84.2910,-9.639,1111122 
COMPS,ioos:station:USF.COMPS:SHP:1,2017-07-02T15:42:00Z,30.0600,-84.2910,-9.654,1111122 
COMPS,ioos:station:USF.COMPS:SHP:1,2017-07-02T15:48:00Z,30.0600,-84.2910,-9.666,1111122 
COMPS,ioos:station:USF.COMPS:SHP:1,2017-07-02T15:54:00Z,30.0600,-84.2910,-9.671,1111122 
COMPS,ioos:station:USF.COMPS:SHP:1,2017-07-02T16:00:00Z,30.0600,-84.2910,-9.689,1111122 
COMPS,ioos:station:USF.COMPS:SHP:1,2017-07-02T16:06:00Z,30.0600,-84.2910,-9.704,1111122 
COMPS,ioos:station:USF.COMPS:SHP:1,2017-07-02T16:12:00Z,30.0600,-84.2910,-9.711,1111122 
COMPS,ioos:station:USF.COMPS:SHP:1,2017-07-02T16:18:00Z,30.0600,-84.2910,-9.725,1111122 
COMPS,ioos:station:USF.COMPS:SHP:1,2017-07-02T16:24:00Z,30.0600,-84.2910,-9.738,1111122 
COMPS,ioos:station:USF.COMPS:SHP:1,2017-07-02T16:30:00Z,30.0600,-84.2910,-9.752,1111122 
COMPS,ioos:station:USF.COMPS:SHP:1,2017-07-02T16:36:00Z,30.0600,-84.2910,-9.764,1111122 
COMPS,ioos:station:USF.COMPS:SHP:1,2017-07-02T16:42:00Z,30.0600,-84.2910,-9.78,1111122 
COMPS,ioos:station:USF.COMPS:SHP:1,2017-07-02T16:48:00Z,30.0600,-84.2910,-9.796,1111122 
COMPS,ioos:station:USF.COMPS:SHP:1,2017-07-02T16:54:00Z,30.0600,-84.2910,-9.815,1111122 
COMPS,ioos:station:USF.COMPS:SHP:1,2017-07-02T17:00:00Z,30.0600,-84.2910,-9.834,1111122 
COMPS,ioos:station:USF.COMPS:SHP:1,2017-07-02T17:06:00Z,30.0600,-84.2910,-9.85,1111122 
COMPS,ioos:station:USF.COMPS:SHP:1,2017-07-02T17:12:00Z,30.0600,-84.2910,-9.866,1111122 
COMPS,ioos:station:USF.COMPS:SHP:1,2017-07-02T17:18:00Z,30.0600,-84.2910,-9.88,1111122 
COMPS,ioos:station:USF.COMPS:SHP:1,2017-07-02T17:24:00Z,30.0600,-84.2910,-9.905,1111122 
COMPS,ioos:station:USF.COMPS:SHP:1,2017-07-02T17:30:00Z,30.0600,-84.2910,-9.923,1111122 
COMPS,ioos:station:USF.COMPS:SHP:1,2017-07-02T17:36:00Z,30.0600,-84.2910,-9.938,1111122 